Flag for India Weather past 2 weeks in Ahmedabad, Gujarat, India

Now
115 °F

Passing clouds.


Feels Like: 113 °F
Forecast: 82 / 109 °F
Wind: 13 mph from West

Location: Ahmadabad Airport

Current Time: May 22, 2015 at 4:43:16 PM

Latest Report: May 22, 2015 at 4:10 PM


Visibility: 4 mi

Pressure: 29.56 "Hg

Humidity: 13%

Dew point: 54 °F

Location of AhmedabadLocation

Historic Weather in Ahmedabad — Graph

°F

Ahmedabad temperature yesterday

Maximum temperature yesterday: 115 °F (at 5:10 PM)
Minimum temperature yesterday: 86 °F (at 5:10 AM)
Average temperature yesterday: 98 °F

Past Weeks' High & Low Weather Summary

 TemperatureHumidityPressure
High117 °F (May 16, 3:40 PM)75% (May 12, 7:40 AM)29.80 "Hg (May 12, 7:40 AM)
Low81 °F (May 8, 5:40 AM)10% (May 7, 2:40 PM)29.50 "Hg (May 17, 4:10 PM)
Average97 °F41%29.68 "Hg
* Reported May 7 2:40 PM — May 22 3:10 PM, Ahmedabad, Weather by CustomWeather, © 2015

Note: Actual official high and low records may vary slightly from our data, if they occured in-between our weather recording intervals... More about our weather records

Advertising

Ahmedabad weather history for previous 24 hours

 ConditionsComfort  
Time TempWeatherWind HumidityBarometerVisibility
3:10 PM
Fri, May 22
113 °FClear.14 mph20%29.59 "Hg4 mi
2:40 PM113 °FClear.14 mph20%29.62 "Hg4 mi
2:10 PM109 °FClear.7 mph25%29.62 "Hg4 mi
1:40 PM108 °FClear.12 mph28%29.65 "Hg4 mi
1:10 PM106 °FClear.12 mph32%29.68 "Hg4 mi
12:40 PM104 °FClear.10 mph35%29.71 "Hg4 mi
12:10 PM102 °FClear.8 mph40%29.71 "Hg4 mi
11:40 AM100 °FClear.7 mph42%29.74 "Hg4 mi
11:10 AM99 °FClear.8 mph47%29.74 "Hg3 mi
10:40 AM93 °FHaze.9 mph56%29.74 "Hg3 mi
10:10 AM93 °FHaze.9 mph56%29.74 "Hg2 mi
9:40 AM91 °FHaze.10 mph59%29.74 "Hg2 mi
9:10 AM90 °FHaze.7 mph63%29.74 "Hg2 mi
8:40 AM88 °FHaze.7 mph66%29.77 "Hg2 mi
8:10 AM88 °FHaze.9 mph66%29.74 "Hg2 mi
6:10 AM84 °FHaze.8 mph74%29.71 "Hg2 mi
5:40 AM84 °FHaze.9 mph74%29.71 "Hg2 mi
5:10 AM84 °FHaze.7 mph74%29.71 "Hg2 mi
4:40 AM84 °FHaze.9 mph74%29.71 "Hg2 mi
4:10 AM86 °FHaze.12 mph70%29.68 "Hg2 mi
3:40 AM88 °FClear.8 mph66%29.68 "Hg2 mi
2:40 AM86 °FClear.6 mph70%29.68 "Hg2 mi
2:10 AM88 °FClear.8 mph70%29.68 "Hg2 mi
12:40 AM90 °FClear.10 mph71%29.68 "Hg2 mi
12:10 AM91 °FClear.9 mph67%29.68 "Hg2 mi
11:40 PM
Thu, May 21
91 °FClear.7 mph67%29.68 "Hg2 mi
11:10 PM91 °FClear.7 mph63%29.68 "Hg2 mi
10:40 PM93 °FClear.10 mph59%29.68 "Hg2 mi
10:10 PM95 °FClear.9 mph53%29.68 "Hg2 mi
9:40 PM95 °FClear.10 mph50%29.68 "Hg2 mi
9:10 PM97 °FClear.12 mph50%29.65 "Hg2 mi
8:40 PM99 °FClear.12 mph44%29.65 "Hg2 mi
8:10 PM100 °FClear.9 mph35%29.62 "Hg2 mi
7:40 PM106 °FClear.6 mph25%29.59 "Hg2 mi
6:10 PM113 °FClear.7 mph21%29.59 "Hg4 mi
5:40 PM115 °FClear.7 mph19%29.59 "Hg4 mi
5:10 PM115 °FClear.7 mph20%29.59 "Hg4 mi
4:40 PM113 °FClear.7 mph20%29.59 "Hg4 mi
4:10 PM113 °FClear.7 mph21%29.59 "Hg4 mi
Weather by CustomWeather, © 2015

See weather overviewHow to use our weather pages